Change the Weather History Date:

Saturday, January 12, 2013

  Actual Average Record
Temperature  
Mean Temperature 26 °F -  
Max Temperature 31 °F - - ()
Min Temperature 22 °F - - ()
Degree Days  
Heating Degree Days 38    
Moisture  
Dew Point 15 °F    
Average Humidity 62    
Maximum Humidity 72    
Minimum Humidity 39    
Precipitation  
Precipitation 0.00 in - - ()
Sea Level Pressure  
Sea Level Pressure 30.42 in    
Wind  
Wind Speed 12 mph ()    
Max Wind Speed 20 mph    
Max Gust Speed 26 mph    
T = Trace of Precipitation, MM = Missing Value Source: Averaged Metar Reports

Daily Weather History Graph

Daily Weather History Graph

Search for Another Location

Airport or City:

Trip Planner

Search our weather history database for the weather conditions in past years. The results will help you decide how hot, cold, wet, or windy it might be!

Date:

Astronomy

Jan. 12, 2013 Rise Set
Actual Time 7:58 AM PST 4:33 PM PST
Civil Twilight 7:21 AM PST 5:09 PM PST
Nautical Twilight 6:42 AM PST 5:49 PM PST
Astronomical Twilight 6:03 AM PST 6:27 PM PST
Moon 8:11 AM PST (1/12) 6:20 PM PST (1/12)
Length of Visible Light 9h 47m
Length of Day
8h 34m
New Moon, 2% of the Moon is Illuminated
Jan 12
New Moon
Jan 18
First Quarter
Jan 26
Full
Feb 3
Last Quarter
Feb 9
New

Hourly Weather History & Observations

Time (PST) Temp. Windchill Dew Point Humidity Pressure Visibility Wind Dir Wind Speed Gust Speed Precip Events Conditions
12:00 AM 25.9 °F 12.9 °F 18.0 °F 72% 30.36 in - NE 17.3 mph 26.5 mph N/A   Unknown
1:00 AM 25.9 °F 14.8 °F 17.8 °F 71% 30.37 in - NE 12.7 mph 21.9 mph N/A   Unknown
2:00 AM 25.2 °F 12.9 °F 17.1 °F 71% 30.38 in - NE 15.0 mph 21.9 mph N/A   Unknown
3:00 AM 24.4 °F 10.6 °F 16.7 °F 72% 30.39 in - NE 18.4 mph - N/A   Unknown
4:00 AM 24 °F - 16 °F 61% 30.39 in - NE 19.6 mph - -  
4:00 AM 23.9 °F 9.5 °F 16.2 °F 72% 30.39 in - NE 19.6 mph - N/A   Unknown
5:00 AM 23.9 °F 9.9 °F 15.6 °F 71% 30.39 in - NE 18.4 mph 26.5 mph N/A   Unknown
6:00 AM 23.7 °F 10.1 °F 15.3 °F 70% 30.40 in - NE 17.3 mph 23.0 mph N/A   Unknown
7:00 AM 23.7 °F 10.5 °F 14.5 °F 68% 30.41 in - NE 16.1 mph 24.2 mph N/A   Unknown
8:00 AM 23.4 °F 15.2 °F 14.4 °F 68% 30.43 in - North 6.9 mph - N/A   Unknown
9:00 AM 23.5 °F 13.7 °F 13.8 °F 66% 30.44 in - North 9.2 mph - N/A   Unknown
10:00 AM 25 °F - 14 °F 49% 30.44 in - NNE 9.2 mph - -  
10:00 AM 24.8 °F 15.3 °F 13.6 °F 63% 30.44 in - NNE 9.2 mph 18.4 mph N/A   Unknown
11:00 AM 27.9 °F 22.6 °F 14.0 °F 56% 30.44 in - WNW 4.6 mph - N/A   Unknown
12:00 PM 28.9 °F 23.9 °F 14.0 °F 54% 30.43 in - North 4.6 mph - N/A   Unknown
1:00 PM 30.9 °F 26.2 °F 15.1 °F 52% 30.43 in - North 4.6 mph - N/A   Unknown
2:00 PM 31.5 °F 25.8 °F 14.9 °F 50% 30.42 in - NW 5.8 mph - N/A   Unknown
3:00 PM 31.3 °F 24.7 °F 14.5 °F 50% 30.42 in - North 6.9 mph 19.6 mph N/A   Unknown
4:00 PM 30 °F - 15 °F 39% 30.41 in - North 6.9 mph - -  
4:00 PM 29.8 °F 23.0 °F 14.5 °F 53% 30.41 in - North 6.9 mph - N/A   Unknown
5:00 PM 28.8 °F 17.9 °F 15.6 °F 58% 30.43 in - NE 13.8 mph - N/A   Unknown
6:00 PM 27.7 °F 16.1 °F 16.0 °F 62% 30.43 in - NE 15.0 mph - N/A   Unknown
7:00 PM 26.6 °F 13.8 °F 15.6 °F 63% 30.44 in - NE 17.3 mph - N/A   Unknown
8:00 PM 25.7 °F 13.5 °F 16.0 °F 67% 30.43 in - NE 15.0 mph - N/A   Unknown
9:00 PM 25.2 °F 13.3 °F 16.0 °F 68% 30.45 in - NE 13.8 mph 20.7 mph N/A   Unknown
10:00 PM 25 °F - 16 °F 56% 30.45 in - NE 17.3 mph - -